[[{"header":{"parameterUnit":"m.s-1","parameterCategory":1,"la1":30.2991,"la2":30.254,"lo1":-89.0895,"lo2":-89.0444,"dy":0.0017,"dx":0.0017,"nx":28,"ny":28,"refTime":"2025-09-14T03:00:00:Z","depth":0,"parameterNumber":2,"parameterNumberName":"U-component_of_WINDS"},"data":[0,0,0,0,0,0,0,0,0,0,0,0,0,0,0,0,0,0,0,0,0,0,0,0,0,0,0,0,0,0,0,0,0,0,0,0,0,0,0,0,0,0,0,0,0,0,0,0,0,0,0,0,0,0,0,0,0,0,-2.8411,-2.8412,0,-2.8463,-2.8464,-2.8464,-2.8408,-2.8406,-2.8404,-2.8402,-2.8455,-2.8459,-2.8462,0,0,0,0,0,0,0,0,0,0,0,0,0,-2.8266,-2.8269,-2.8411,-2.8412,-2.8413,-2.8463,-2.8464,-2.8464,-2.8409,-2.8406,-2.8403,-2.8401,-2.8454,-2.8458,-2.8462,0,0,0,0,0,0,0,0,0,0,0,0,0,-2.8324,-2.827,-2.8411,-2.8391,-2.839,-2.8463,-2.8464,-2.8465,-2.8409,-2.8406,-2.8403,-2.84,-2.8453,-2.8458,-2.8463,-2.8559,0,0,-2.8478,-2.8481,0,0,0,0,0,0,0,0,-2.8321,-2.833,-2.8393,-2.8392,-2.8391,-2.8426,-2.8432,-2.8496,-2.841,-2.8402,-2.8402,-2.8398,-2.8448,-2.8453,-2.847,-2.8561,-2.8563,-2.8479,-2.8482,-2.8484,-2.8486,0,0,0,0,0,0,0,-2.8317,-2.8327,-2.8432,-2.8394,-2.8393,-2.838,-2.8384,-2.8444,-2.8442,-2.8402,-2.8398,-2.8405,-2.8447,-2.8465,-2.8471,-2.8564,-2.8479,-2.8483,-2.8486,-2.8488,-2.8737,-2.8741,0,0,0,0,0,0,-2.8315,-2.8324,-2.843,-2.8433,-2.8347,-2.8385,-2.839,-2.8418,-2.8442,-2.8442,-2.8408,-2.8402,-2.8458,-2.8465,-2.8473,-2.8586,-2.8484,-2.8489,-2.8492,-2.8734,-2.8738,-2.8742,0,0,0,0,0,0,-2.8312,-2.8325,-2.8428,-2.8378,-2.839,-2.8391,-2.8422,-2.8421,-2.8439,-2.8446,-2.8445,-2.8427,-2.8456,-2.8465,-2.8538,-2.8587,-2.8491,-2.8496,-2.873,-2.8735,-2.874,-2.8815,0,0,0,0,0,0,-2.8308,-2.8324,-2.836,-2.8379,-2.8393,-2.8492,-2.8426,-2.8424,-2.8448,-2.8441,-2.8463,-2.8464,-2.8454,-2.8531,-2.8543,-2.8593,-2.85,-2.8725,-2.8732,-2.8738,-2.8808,-2.8822,-2.8834,0,0,0,0,0,-2.8303,-2.8379,-2.8363,-2.8376,-2.8438,-2.8495,-2.8503,-2.849,-2.8452,-2.8489,-2.8493,-2.8463,-2.8581,-2.8538,-2.8552,-2.8604,-2.8722,-2.873,-2.8738,-2.8802,-2.8819,-2.8834,0,0,0,0,0,0,-2.8366,-2.8381,-2.8363,-2.8447,-2.847,-2.8485,-2.8531,-2.8508,-2.8543,-2.8535,-2.8518,-2.8523,-2.86,-2.861,-2.8562,-2.8699,-2.8645,-2.8656,-2.8689,-2.8706,-2.8718,-2.8714,-2.8504,0,0,0,0,0,-2.839,-2.8435,-2.8446,-2.8519,-2.8532,-2.853,-2.8554,-2.8542,-2.8566,-2.8575,-2.8585,-2.8609,-2.8651,-2.8679,-2.8718,-2.881,-2.8814,-2.8852,-2.8865,-2.8876,-2.8885,-2.8935,-2.8952,-2.8768,-2.8768,-2.8768,0,0,-2.8439,-2.8453,-2.8482,-2.8532,-2.8549,-2.8596,-2.8538,-2.8591,-2.8626,-2.8583,-2.8652,-2.866,-2.8686,-2.8768,-2.8805,-2.8779,-2.8938,-2.8886,-2.8895,-2.8898,-2.8945,-2.8962,-2.8978,-2.8774,-2.8773,-2.8772,0,0,-2.8553,-2.8568,-2.8631,-2.8649,-2.8675,-2.8673,-2.8689,-2.8708,-2.8712,-2.8781,-2.875,-2.8792,-2.8865,-2.8885,-2.8904,-2.9028,-2.9002,-2.9041,-2.9109,-2.9157,-2.9172,-2.9185,-2.9228,-2.9244,-2.9051,-2.9051,-2.9051,0,-2.8611,-2.868,-2.8666,-2.8721,-2.8744,-2.8708,-2.8772,-2.879,-2.8828,-2.8845,-2.8815,-2.8906,-2.8921,-2.9008,-2.9038,-2.9056,-2.9072,-2.9038,-2.9171,-2.9184,-2.9195,-2.9237,-2.9253,-2.9056,-2.9055,-2.9055,-2.9054,0,-2.875,-2.8799,-2.8847,-2.8884,-2.8913,-2.8972,-2.8967,-2.8998,-2.8984,-2.8986,-2.9057,-2.9074,-2.9116,-2.9137,-2.9124,-2.9222,-2.9205,-2.9173,-2.9119,-2.9218,-2.9256,-2.9272,-2.9062,-2.9061,-2.9059,-2.9058,0,0,-2.8903,-2.8932,-2.895,-2.8967,-2.8994,-2.9032,-2.909,-2.9131,-2.9158,-2.9186,-2.9234,-2.9298,-2.9269,-2.9292,-2.9281,-2.9324,-2.9421,-2.9287,-2.9288,-2.9311,-2.953,-2.9552,-2.9571,-2.9404,-2.9407,-2.941,-2.9527,0,-2.9016,-2.9116,-2.9106,-2.9201,-2.9246,-2.9214,-2.9265,-2.9288,-2.9292,-2.9331,-2.9335,-2.9381,-2.934,-2.9353,-2.9394,-2.94,-2.9464,-2.9392,-2.9449,-2.9451,-2.9442,-2.9591,-2.9615,-2.9725,-2.9542,-2.9545,-2.9547,0,-2.9161,-2.9195,-2.9295,-2.9315,-2.9334,-2.938,-2.9417,-2.9456,-2.9481,-2.9481,-2.9507,-2.9489,-2.9549,-2.9495,-2.9576,-2.9527,-2.955,-2.9557,-2.9561,-2.9565,-2.9504,-2.9598,-2.976,-2.9776,-2.9571,-2.9569,-2.9567,0,-2.9262,-2.9332,-2.94,-2.9416,-2.9442,-2.9475,-2.9488,-2.951,-2.9536,-2.9569,-2.9586,-2.9626,-2.9648,-2.968,-2.9674,-2.9635,-2.9757,-2.9703,-2.9759,-2.9759,-2.9784,-2.9782,-2.9951,-2.9801,-2.9801,-2.9801,-2.9801,0,-2.9389,-2.9451,-2.9446,-2.9488,-2.9557,-2.9546,-2.9615,-2.9623,-2.9644,-2.9687,-2.9663,-2.9705,-2.9695,-2.9737,-2.9733,-2.9801,-2.9811,-2.9813,-2.9811,-2.9814,-2.9814,-2.9828,-2.982,-2.9805,-2.9804,-2.9803,-2.9803,0,-2.9512,-2.9511,-2.9584,-2.9603,-2.961,-2.966,-2.9677,-2.9717,-2.9719,-2.9775,-2.9788,-2.9792,-2.984,-2.9838,-2.9892,-2.989,-2.9973,-2.9963,-2.9965,-2.9962,-3.0018,-3.0012,-3.02,-3.0224,-3.006,-3.0062,-3.0063,0,-2.9592,-2.9639,-2.9664,-2.9692,-2.9707,-2.9751,-2.9778,-2.9769,-2.9798,-2.9831,-2.9867,-2.9913,-2.9949,-3.0028,-3.0036,-3.0078,-3.0068,-3.0131,-3.0074,-3.0076,-3.0068,-3.0064,-3.0069,-3.0141,-3.0143,-3.0145,-3.0146,0,-2.9735,-2.9733,-2.9772,-2.9811,-2.9844,-2.9874,-2.9902,-2.9926,-2.9921,-2.9954,-3.0003,-3.0031,-3.0087,-3.0133,-3.0174,-3.0187,-3.0166,-3.0164,-3.0179,-3.0183,-3.0181,-3.0182,-2.9994,-3.0159,-3.0158,-3.0157,-3.0156,-3.0156,-2.9839,-2.9879,-2.9903,-2.9948,-2.9968,-2.9995,-3.0034,-3.0042,-3.0082,-3.0127,-3.012,-3.0175,-3.02,-3.0252,-3.027,-3.0313,-3.029,-3.0312,-3.0318,-3.0323,-3.0329,-3.0176,-3.032,-3.032,-3.032,-3.0319,-3.0319,0,-2.998,-2.9994,-3.0035,-3.0075,-3.0111,-3.0088,-3.0119,-3.015,-3.0198,-3.0224,-3.026,-3.0316,-3.0361,-3.0374,-3.0417,-3.045,-3.0441,-3.0461,-3.0458,-3.0462,-3.0347,-3.0329,-3.0467,-3.0467,-3.0467,-3.0467,-3.0467,-3.0467,-3.0057,-3.0125,-3.0125,-3.0203,-3.0217,-3.027,-3.0289,-3.0315,-3.0335,-3.0399,-3.0436,-3.0444,-3.0465,-3.051,-3.055,-3.0553,-3.057,-3.0594,-3.0593,-3.0485,-3.047,-3.0455,-3.0438,-3.0598,-3.0598,-3.0704,-3.0705,-3.0705]},{"header":{"parameterUnit":"m.s-1","parameterCategory":1,"la1":30.2991,"la2":30.254,"lo1":-89.0895,"lo2":-89.0444,"dy":0.0017,"dx":0.0017,"nx":28,"ny":28,"refTime":"2025-09-14T03:00:00:Z","depth":0,"parameterNumber":3,"parameterNumberName":"V-component_of_WINDS"},"data":[0,0,0,0,0,0,0,0,0,0,0,0,0,0,0,0,0,0,0,0,0,0,0,0,0,0,0,0,0,0,0,0,0,0,0,0,0,0,0,0,0,0,0,0,0,0,0,0,0,0,0,0,0,0,0,0,0,0,3.0969,3.0969,0,3.1006,3.1007,3.1007,3.1032,3.1032,3.1032,3.1033,3.1067,3.1068,3.1069,0,0,0,0,0,0,0,0,0,0,0,0,0,3.0915,3.0916,3.0969,3.0969,3.0969,3.1006,3.1007,3.1007,3.1032,3.1032,3.1032,3.1033,3.1067,3.1068,3.1069,0,0,0,0,0,0,0,0,0,0,0,0,0,3.0944,3.0916,3.0968,3.0986,3.0988,3.1006,3.1007,3.1007,3.1032,3.1032,3.1032,3.1033,3.1067,3.1068,3.1069,3.107,0,0,3.1072,3.1073,0,0,0,0,0,0,0,0,3.0942,3.0946,3.0983,3.0985,3.0987,3.1015,3.1,3.1028,3.1032,3.1015,3.1033,3.1033,3.1049,3.1052,3.1058,3.1072,3.1073,3.1072,3.1073,3.1074,3.1074,0,0,0,0,0,0,0,3.094,3.0944,3.0983,3.0984,3.0986,3.0991,3.0996,3.1006,3.103,3.1017,3.1019,3.1023,3.105,3.1057,3.1059,3.1074,3.1072,3.1073,3.1074,3.1074,3.1091,3.109,0,0,0,0,0,0,3.0936,3.0942,3.0982,3.0984,3.0965,3.0992,3.0997,3.1006,3.103,3.1034,3.1023,3.1024,3.1055,3.1058,3.106,3.1064,3.1073,3.1075,3.1075,3.1091,3.1091,3.109,0,0,0,0,0,0,3.0935,3.0939,3.0981,3.0964,3.097,3.0993,3.1002,3.1006,3.1013,3.1035,3.1039,3.1025,3.1055,3.1059,3.1068,3.1065,3.1075,3.1076,3.1091,3.1091,3.109,3.107,0,0,0,0,0,0,3.0933,3.0939,3.094,3.0964,3.0971,3.0988,3.1002,3.1007,3.1015,3.1017,3.1038,3.1042,3.1056,3.1066,3.1069,3.1067,3.1077,3.1091,3.1091,3.1091,3.1071,3.1069,3.1067,0,0,0,0,0,3.0931,3.0932,3.094,3.0945,3.0973,3.0988,3.0992,3.1009,3.1015,3.1016,3.103,3.1041,3.1065,3.1067,3.107,3.1069,3.1092,3.1091,3.1091,3.1072,3.107,3.1068,0,0,0,0,0,0,3.0906,3.0935,3.0945,3.0954,3.0968,3.0992,3.0994,3.1006,3.1018,3.1019,3.1039,3.1043,3.105,3.106,3.1062,3.1071,3.108,3.108,3.1064,3.1062,3.106,3.1057,3.1078,0,0,0,0,0,3.0901,3.0912,3.0937,3.0943,3.095,3.0971,3.0978,3.099,3.1006,3.1012,3.1026,3.104,3.1051,3.1057,3.1068,3.1073,3.1077,3.1073,3.1072,3.107,3.107,3.1073,3.1071,3.1089,3.1089,3.1089,0,0,3.0892,3.091,3.0915,3.0938,3.0951,3.0961,3.0976,3.0985,3.0993,3.1013,3.1022,3.1034,3.105,3.1057,3.1061,3.1066,3.1066,3.1069,3.1068,3.1068,3.1072,3.107,3.1069,3.1088,3.1088,3.1088,0,0,3.088,3.0895,3.0901,3.0914,3.0934,3.0948,3.095,3.0972,3.0981,3.0992,3.1007,3.1015,3.1033,3.1044,3.1052,3.1045,3.1056,3.1048,3.1038,3.1041,3.104,3.1038,3.1036,3.1034,3.1048,3.1048,3.1048,0,3.0866,3.0883,3.0903,3.0912,3.0921,3.0942,3.0948,3.0959,3.098,3.0986,3.0991,3.1015,3.1027,3.1037,3.1035,3.1041,3.1043,3.1046,3.1038,3.1038,3.1037,3.1034,3.1033,3.1047,3.1047,3.1047,3.1047,0,3.0864,3.0875,3.0878,3.09,3.0909,3.0917,3.0937,3.0944,3.0956,3.0969,3.0979,3.0995,3.101,3.1013,3.1024,3.1024,3.1027,3.1035,3.1044,3.1034,3.1032,3.1031,3.1045,3.1046,3.1046,3.1046,0,0,3.0836,3.087,3.0871,3.0881,3.0905,3.0913,3.0921,3.0937,3.0943,3.0957,3.0964,3.0979,3.0987,3.0996,3.1008,3.1011,3.1004,3.1019,3.102,3.1015,3.1005,3.0998,3.0997,3.1012,3.1011,3.1011,3.1004,0,3.0827,3.0845,3.0863,3.0873,3.0884,3.0903,3.091,3.0925,3.0937,3.0947,3.0961,3.0971,3.0981,3.0987,3.099,3.1004,3.1002,3.1005,3.1017,3.1017,3.1011,3.0996,3.0989,3.0981,3.1003,3.1003,3.1003,0,3.0819,3.0834,3.0846,3.0869,3.0874,3.088,3.0896,3.0906,3.0923,3.0932,3.0942,3.0956,3.0964,3.0972,3.0984,3.0985,3.0991,3.0999,3.0999,3.1,3.1009,3.0996,3.0979,3.0977,3.1002,3.1002,3.1002,0,3.0797,3.0821,3.0831,3.0839,3.0866,3.087,3.0881,3.0899,3.0907,3.0921,3.0926,3.094,3.0947,3.0957,3.0974,3.0978,3.0983,3.0993,3.099,3.0989,3.0989,3.0989,3.0972,3.0994,3.0994,3.0994,3.0994,0,3.0785,3.0791,3.0821,3.0827,3.0834,3.0856,3.0862,3.0875,3.089,3.0898,3.0915,3.0922,3.0944,3.0953,3.0966,3.0973,3.0976,3.0983,3.0986,3.0981,3.098,3.0985,3.0985,3.0994,3.0994,3.0994,3.0994,0,3.0762,3.0782,3.0794,3.082,3.0826,3.083,3.0852,3.0858,3.0872,3.0882,3.0885,3.0907,3.0919,3.0936,3.0953,3.0961,3.0966,3.0972,3.0961,3.0963,3.0959,3.0958,3.0943,3.0942,3.0966,3.0965,3.0965,0,3.0752,3.0758,3.0785,3.0792,3.0803,3.0815,3.0824,3.0845,3.0853,3.0873,3.0876,3.089,3.0902,3.0919,3.0936,3.0948,3.0954,3.0948,3.0956,3.0951,3.0953,3.0953,3.0953,3.0946,3.0945,3.0945,3.0945,0,3.0734,3.0744,3.0757,3.0774,3.0784,3.0798,3.0813,3.0817,3.0841,3.085,3.0863,3.0872,3.089,3.0902,3.0918,3.0928,3.094,3.0942,3.0942,3.0937,3.093,3.0933,3.0955,3.0942,3.0943,3.0943,3.0943,3.0943,3.0716,3.0722,3.0742,3.0756,3.077,3.0783,3.079,3.0806,3.0818,3.0835,3.0846,3.0858,3.0875,3.0897,3.0907,3.0916,3.0921,3.0921,3.092,3.092,3.0918,3.0929,3.0918,3.0919,3.0919,3.0919,3.0919,0,3.0698,3.0712,3.0725,3.0746,3.0756,3.0769,3.0786,3.0793,3.0804,3.082,3.0831,3.0846,3.0859,3.0877,3.089,3.0894,3.09,3.0897,3.0896,3.0898,3.0913,3.0911,3.0892,3.0892,3.0892,3.0892,3.0892,3.0892,3.069,3.07,3.0713,3.073,3.0743,3.0757,3.0765,3.0777,3.079,3.0806,3.0817,3.0829,3.0845,3.086,3.0872,3.0877,3.0881,3.0876,3.0882,3.0895,3.0897,3.09,3.0898,3.0877,3.0877,3.0867,3.0867,3.0867]}]]